Flag for Brazil Weather past 2 weeks in Belo Horizonte, Minas Gerais, Brazil

Now
75 °F

Passing clouds.


Feels Like: 77 °F
Forecast: 67 / 91 °F
Wind: 5 mph from Southeast

Location: Belo Horizonte Airport

Current Time: Jan 30, 2015 at 9:15:27 AM

Latest Report: Jan 30, 2015 at 8:00 AM


Visibility: N/A

Pressure: 30.04 "Hg

Humidity: 69%

Dew point: 64 °F

Location of Belo HorizonteLocation

Historic Weather in Belo Horizonte — Graph

°F

Belo Horizonte temperature yesterday

Maximum temperature yesterday: 88 °F (at 4:00 PM)
Minimum temperature yesterday: 66 °F (at 5:00 AM)
Average temperature yesterday: 77 °F

Past Weeks' High & Low Weather Summary

 TemperatureHumidityPressure
High95 °F (Jan 21, 4:00 PM)94% (Jan 24, 5:00 PM)30.18 "Hg (Jan 24, 5:00 PM)
Low64 °F (Jan 25, 12:00 AM)20% (Jan 17, 5:00 PM)29.92 "Hg (Jan 21, 5:00 PM)
Average76 °F58%30.06 "Hg
* Reported Jan 15 8:00 AM — Jan 30 8:00 AM, Belo Horizonte, Weather by CustomWeather, © 2014

Note: Actual official high and low records may vary slightly from our data, if they occured in-between our weather recording intervals... More about our weather records

Advertising

Belo Horizonte weather history for previous 24 hours

 ConditionsComfort  
Time TempWeatherWind HumidityBarometerVisibility
8:00 AM
Jan 30
75 °FPassing clouds.5 mph69%30.04 "HgN/A
7:00 AM72 °FClear.3 mph78%30.04 "Hg10 mi
6:00 AM72 °FPassing clouds.3 mph78%30.01 "HgN/A
5:00 AM72 °FPassing clouds.2 mph83%30.01 "HgN/A
4:00 AM72 °FPassing clouds.2 mph83%30.01 "HgN/A
3:00 AM73 °FPassing clouds.6 mph78%30.04 "HgN/A
2:00 AM75 °FPassing clouds.5 mph74%30.04 "HgN/A
1:00 AM75 °FPassing clouds.2 mph69%30.07 "HgN/A
12:00 AM77 °FPassing clouds.6 mph69%30.07 "HgN/A
11:00 PM
Jan 29
77 °FThundershowers. Passing clouds.3 mph65%30.04 "HgN/A
10:00 PM81 °FPassing clouds.3 mph58%30.04 "HgN/A
9:00 PM82 °FThundershowers. Passing clouds.2 mph51%30.01 "HgN/A
8:00 PM82 °FScattered clouds.5 mph55%30.01 "HgN/A
7:00 PM86 °FScattered clouds.8 mph46%30.01 "HgN/A
6:00 PM88 °FScattered clouds.6 mph43%29.98 "HgN/A
5:00 PM88 °FScattered clouds.3 mph43%30.01 "HgN/A
4:00 PM88 °FScattered clouds.3 mph43%30.01 "HgN/A
3:00 PM86 °FScattered clouds.6 mph43%30.04 "HgN/A
2:00 PM84 °FScattered clouds.5 mph48%30.07 "HgN/A
1:00 PM84 °FPartly sunny.7 mph48%30.09 "HgN/A
12:00 PM82 °FScattered clouds.9 mph51%30.09 "HgN/A
11:00 AM81 °FPassing clouds.5 mph54%30.12 "HgN/A
10:00 AM79 °FSunny.8 mph58%30.12 "Hg10 mi
9:00 AM75 °FSunny.7 mph69%30.09 "Hg10 mi
Weather by CustomWeather, © 2014

See weather overviewHow to use our weather pages